Location: Goettingen
(51.5300°N, 9.9433°E)
Time: 10:26:50
(UTC+02:00)

ISS - Pass Details

Date: 13 May 2025
Orbit: 416 x 419 km, 51.6° (Epoch: 18 May)

Event Time Altitude Azimuth Distance (km) Brightness Sun altitude
Rises 23:48:38 0° 272° (W) 2,360 0.4 -17.3°
Reaches altitude 10° 23:50:44 10° 273° (W) 1,496 -0.7 -17.4°
Maximum altitude 23:54:05 87° 1° (N) 423 -3.8 -17.6°
Enters shadow 23:55:46 27° 91° (E) 832 -2.5 -17.7°
